QPF
0.01 0.01 0.02 0.02 0.01 0.01 0.02 0.01 0.01 0.01 0.01 0.01 0.02 0.03 0.02 0.03 0.03 0.04 0.05 0.06 0.07 0.06 0.07 0.07 0.08 0.08 0.10 0.11 0.07 0.06 0.06 0.07 0.07 0.07 0.06 0.08 0.09 0.09 0.13 0.18 0.13 0.10 0.10
0.00 0.01 0.02 0.02 0.01 0.01 0.01 0.01 0.01 0.01 0.01 0.01 0.02 0.03 0.01 0.02 0.02 0.02 0.03 0.04 0.07 0.11 0.11 0.10 0.08 0.08 0.10 0.11 0.08 0.06 0.05 0.06 0.06 0.08 0.08 0.10 0.11 0.10 0.12 0.18 0.15 0.11 0.10
0.00 0.00 0.01 0.01 0.01 0.01 0.02 0.02 0.02 0.01 0.01 0.01 0.02 0.02 0.01 0.01 0.02 0.02 0.03 0.04 0.06 0.12 0.12 0.12 0.13 0.09 0.10 0.11 0.09 0.07 0.07 0.07 0.07 0.08 0.09 0.09 0.13 0.16 0.16 0.15 0.13 0.11 0.08
0.01 0.00 0.00 0.01 0.01 0.01 0.01 0.02 0.02 0.01 0.01 0.01 0.01 0.01 0.01 0.01 0.01 0.02 0.02 0.03 0.07 0.15 0.22 0.16 0.14 0.11 0.09 0.11 0.11 0.09 0.10 0.10 0.09 0.08 0.08 0.08 0.11 0.14 0.14 0.12 0.11 0.10 0.09
0.01 0.01 0.01 0.01 0.01 0.01 0.02 0.02 0.02 0.01 0.01 0.01 0.01 0.01 0.01 0.02 0.02 0.02 0.02 0.02 0.05 0.10 0.19 0.20 0.15 0.13 0.10 0.09 0.11 0.11 0.12 0.10 0.08 0.08 0.09 0.09 0.12 0.13 0.12 0.11 0.10 0.10 0.09
0.01 0.01 0.01 0.02 0.01 0.01 0.02 0.03 0.02 0.01 0.01 0.01 0.01 0.01 0.01 0.02 0.03 0.03 0.03 0.03 0.05 0.08 0.12 0.16 0.17 0.13 0.11 0.12 0.12 0.13 0.16 0.13 0.08 0.04 0.05 0.07 0.10 0.12 0.11 0.10 0.11 0.09 0.08
0.02 0.01 0.01 0.02 0.02 0.02 0.02 0.03 0.02 0.02 0.01 0.01 0.02 0.02 0.02 0.01 0.02 0.04 0.05 0.04 0.03 0.06 0.13 0.15 0.14 0.13 0.12 0.14 0.14 0.16 0.20 0.15 0.07 0.03 0.02 0.03 0.07 0.09 0.09 0.10 0.09 0.08 0.06
0.02 0.01 0.02 0.02 0.02 0.01 0.01 0.03 0.02 0.02 0.01 0.01 0.01 0.02 0.03 0.01 0.02 0.04 0.04 0.04 0.03 0.03 0.09 0.17 0.14 0.11 0.11 0.16 0.21 0.18 0.19 0.19 0.09 0.04 0.02 0.03 0.05 0.07 0.08 0.08 0.08 0.08 0.06
0.02 0.02 0.04 0.04 0.04 0.03 0.02 0.02 0.03 0.03 0.02 0.02 0.02 0.02 0.02 0.01 0.01 0.03 0.04 0.05 0.04 0.03 0.04 0.07 0.08 0.07 0.07 0.10 0.18 0.19 0.19 0.22 0.18 0.07 0.02 0.02 0.05 0.07 0.07 0.08 0.08 0.08 0.08
0.03 0.04 0.05 0.05 0.06 0.05 0.03 0.03 0.04 0.04 0.03 0.03 0.03 0.03 0.03 0.02 0.01 0.02 0.04 0.05 0.04 0.03 0.03 0.04 0.04 0.05 0.06 0.06 0.08 0.10 0.11 0.14 0.16 0.10 0.03 0.02 0.04 0.07 0.08 0.08 0.07 0.07 0.08
0.03 0.04 0.04 0.03 0.03 0.04 0.05 0.05 0.05 0.04 0.04 0.03 0.02 0.03 0.03 0.02 0.02 0.02 0.05 0.06 0.06 0.06 0.05 0.03 0.03 0.03 0.05 0.07 0.07 0.07 0.06 0.06 0.08 0.11 0.04 0.03 0.04 0.08 0.09 0.08 0.08 0.09 0.08
0.02 0.02 0.03 0.04 0.04 0.06 0.06 0.08 0.07 0.04 0.04 0.03 0.01 0.02 0.02 0.03 0.03 0.03 0.05 0.07 0.08 0.08 0.07 0.05 0.04 0.03 0.03 0.03 0.04 0.05 0.05 0.05 0.05 0.07 0.05 0.04 0.05 0.09 0.11 0.10 0.08 0.08 0.08
0.02 0.02 0.04 0.05 0.05 0.07 0.08 0.10 0.09 0.07 0.05 0.03 0.02 0.02 0.03 0.04 0.04 0.03 0.04 0.06 0.08 0.10 0.08 0.08 0.07 0.05 0.03 0.01 0.01 0.01 0.02 0.03 0.03 0.04 0.05 0.06 0.07 0.11 0.12 0.12 0.11 0.09 0.08
0.03 0.04 0.03 0.04 0.04 0.04 0.06 0.06 0.09 0.09 0.09 0.08 0.05 0.02 0.03 0.05 0.04 0.03 0.03 0.05 0.08 0.10 0.08 0.07 0.07 0.06 0.03 0.02 0.01 0.01 0.01 0.01 0.01 0.02 0.04 0.08 0.10 0.12 0.15 0.17 0.15 0.12 0.10
0.06 0.04 0.03 0.04 0.04 0.05 0.04 0.04 0.06 0.07 0.07 0.07 0.05 0.04 0.03 0.04 0.04 0.03 0.02 0.04 0.06 0.08 0.07 0.06 0.04 0.05 0.03 0.03 0.02 0.02 0.02 0.01 0.01 0.02 0.03 0.06 0.10 0.13 0.17 0.22 0.21 0.15 0.13
0.06 0.05 0.04 0.04 0.04 0.05 0.05 0.05 0.05 0.06 0.06 0.07 0.07 0.05 0.04 0.04 0.04 0.04 0.03 0.02 0.03 0.06 0.07 0.06 0.05 0.05 0.05 0.04 0.03 0.01 0.02 0.01 0.01 0.01 0.02 0.04 0.06 0.09 0.14 0.22 0.26 0.19 0.15
0.06 0.04 0.03 0.02 0.03 0.04 0.04 0.05 0.05 0.05 0.05 0.06 0.05 0.04 0.04 0.04 0.04 0.04 0.03 0.03 0.03 0.04 0.08 0.07 0.06 0.06 0.06 0.06 0.05 0.03 0.04 0.02 0.01 0.01 0.01 0.01 0.02 0.05 0.09 0.16 0.23 0.21 0.17
0.03 0.02 0.02 0.02 0.02 0.03 0.03 0.04 0.04 0.05 0.04 0.04 0.05 0.06 0.05 0.04 0.04 0.05 0.04 0.03 0.04 0.05 0.07 0.07 0.06 0.06 0.05 0.06 0.06 0.05 0.05 0.03 0.02 0.01 0.01 0.01 0.02 0.04 0.06 0.09 0.13 0.18 0.19
0.01 0.02 0.02 0.02 0.02 0.03 0.03 0.04 0.03 0.03 0.03 0.04 0.05 0.06 0.05 0.05 0.05 0.05 0.04 0.04 0.04 0.05 0.05 0.06 0.07 0.07 0.06 0.07 0.07 0.06 0.05 0.03 0.03 0.02 0.01 0.01 0.02 0.03 0.05 0.06 0.08 0.10 0.13
0.02 0.02 0.03 0.03 0.03 0.03 0.03 0.03 0.03 0.02 0.03 0.03 0.03 0.02 0.02 0.04 0.06 0.06 0.06 0.06 0.06 0.06 0.05 0.06 0.07 0.09 0.07 0.08 0.10 0.08 0.06 0.04 0.03 0.02 0.02 0.01 0.02 0.03 0.03 0.04 0.05 0.06 0.09
0.02 0.01 0.01 0.02 0.02 0.03 0.03 0.02 0.02 0.02 0.02 0.04 0.05 0.05 0.04 0.05 0.06 0.06 0.05 0.05 0.05 0.05 0.05 0.06 0.07 0.07 0.07 0.08 0.12 0.12 0.09 0.05 0.04 0.04 0.03 0.03 0.02 0.02 0.03 0.04 0.07 0.07 0.07
0.01 0.02 0.01 0.01 0.02 0.02 0.03 0.03 0.03 0.02 0.02 0.03 0.04 0.04 0.03 0.03 0.03 0.03 0.03 0.05 0.05 0.06 0.07 0.07 0.06 0.05 0.06 0.06 0.09 0.11 0.10 0.07 0.04 0.04 0.04 0.03 0.03 0.02 0.02 0.03 0.04 0.07 0.08
0.01 0.01 0.01 0.01 0.01 0.01 0.02 0.03 0.03 0.02 0.02 0.03 0.04 0.04 0.04 0.04 0.03 0.03 0.03 0.03 0.04 0.05 0.06 0.06 0.05 0.03 0.03 0.03 0.05 0.07 0.06 0.05 0.05 0.04 0.05 0.04 0.04 0.02 0.01 0.03 0.02 0.03 0.06
0.02 0.01 0.01 0.01 0.01 0.02 0.03 0.03 0.04 0.04 0.04 0.03 0.04 0.05 0.05 0.05 0.05 0.04 0.03 0.04 0.04 0.04 0.04 0.05 0.05 0.04 0.03 0.03 0.04 0.04 0.05 0.05 0.05 0.04 0.05 0.05 0.05 0.02 0.02 0.02 0.02 0.02 0.03
0.02 0.02 0.02 0.01 0.02 0.03 0.03 0.04 0.06 0.06 0.05 0.05 0.04 0.04 0.04 0.03 0.04 0.05 0.04 0.04 0.04 0.04 0.03 0.04 0.04 0.04 0.04 0.03 0.03 0.03 0.06 0.06 0.03 0.03 0.05 0.06 0.05 0.03 0.02 0.02 0.02 0.03 0.02
0.02 0.01 0.01 0.01 0.01 0.02 0.03 0.05 0.07 0.08 0.06 0.05 0.04 0.03 0.02 0.01 0.01 0.02 0.03 0.02 0.02 0.02 0.02 0.03 0.04 0.05 0.04 0.03 0.02 0.03 0.06 0.07 0.04 0.03 0.03 0.04 0.04 0.03 0.03 0.02 0.03 0.03 0.03
MSLP
1008.15 1008.05 1008.14 1008.43 1008.85 1009.34 1009.81 1010.20 1010.48 1010.67 1010.80 1010.94 1011.15 1011.47 1011.90 1012.40 1012.94 1013.44 1013.86 1014.18 1014.39 1014.52 1014.63 1014.74 1014.89 1015.09 1015.31 1015.52 1015.71 1015.84 1015.91 1015.95 1015.98 1016.03 1016.11 1016.25 1016.42 1016.60 1016.78 1016.92 1017.03 1017.11 1017.17
1007.87 1007.81 1007.95 1008.29 1008.76 1009.31 1009.84 1010.30 1010.65 1010.89 1011.08 1011.27 1011.52 1011.86 1012.29 1012.80 1013.31 1013.79 1014.17 1014.45 1014.63 1014.75 1014.84 1014.95 1015.10 1015.29 1015.50 1015.71 1015.87 1015.99 1016.04 1016.07 1016.08 1016.12 1016.19 1016.32 1016.47 1016.64 1016.81 1016.95 1017.06 1017.15 1017.24
1007.52 1007.49 1007.67 1008.04 1008.57 1009.18 1009.78 1010.32 1010.75 1011.08 1011.34 1011.58 1011.87 1012.23 1012.65 1013.13 1013.61 1014.03 1014.37 1014.61 1014.76 1014.86 1014.95 1015.06 1015.21 1015.40 1015.61 1015.81 1015.97 1016.07 1016.13 1016.15 1016.16 1016.20 1016.27 1016.39 1016.53 1016.68 1016.83 1016.96 1017.07 1017.18 1017.29
1007.15 1007.14 1007.34 1007.75 1008.33 1008.99 1009.66 1010.27 1010.78 1011.19 1011.52 1011.82 1012.14 1012.51 1012.92 1013.37 1013.80 1014.17 1014.47 1014.67 1014.80 1014.90 1014.99 1015.11 1015.27 1015.47 1015.68 1015.87 1016.03 1016.13 1016.19 1016.22 1016.24 1016.29 1016.37 1016.48 1016.61 1016.74 1016.87 1016.99 1017.10 1017.22 1017.36
1006.83 1006.84 1007.05 1007.49 1008.09 1008.79 1009.51 1010.18 1010.75 1011.22 1011.61 1011.96 1012.31 1012.68 1013.09 1013.50 1013.89 1014.23 1014.49 1014.68 1014.80 1014.91 1015.02 1015.16 1015.33 1015.54 1015.75 1015.94 1016.09 1016.19 1016.25 1016.29 1016.34 1016.40 1016.49 1016.60 1016.73 1016.85 1016.96 1017.06 1017.16 1017.29 1017.45
1006.65 1006.66 1006.88 1007.32 1007.94 1008.65 1009.39 1010.08 1010.68 1011.19 1011.62 1012.01 1012.38 1012.77 1013.17 1013.56 1013.93 1014.25 1014.49 1014.68 1014.82 1014.95 1015.09 1015.25 1015.45 1015.66 1015.87 1016.04 1016.18 1016.27 1016.33 1016.38 1016.44 1016.53 1016.64 1016.77 1016.90 1017.01 1017.11 1017.19 1017.28 1017.40 1017.57
1006.64 1006.65 1006.88 1007.32 1007.92 1008.62 1009.34 1010.02 1010.62 1011.14 1011.59 1012.00 1012.40 1012.80 1013.21 1013.60 1013.96 1014.27 1014.52 1014.72 1014.89 1015.05 1015.22 1015.42 1015.64 1015.85 1016.04 1016.20 1016.31 1016.38 1016.44 1016.49 1016.57 1016.68 1016.82 1016.97 1017.11 1017.23 1017.31 1017.38 1017.45 1017.56 1017.71
1006.80 1006.83 1007.05 1007.48 1008.04 1008.70 1009.37 1010.01 1010.58 1011.09 1011.55 1011.98 1012.40 1012.83 1013.25 1013.65 1014.02 1014.33 1014.60 1014.82 1015.01 1015.21 1015.42 1015.64 1015.87 1016.08 1016.26 1016.39 1016.47 1016.52 1016.56 1016.62 1016.71 1016.85 1017.02 1017.19 1017.35 1017.48 1017.56 1017.62 1017.67 1017.74 1017.86
1007.11 1007.15 1007.37 1007.76 1008.28 1008.86 1009.46 1010.04 1010.56 1011.05 1011.50 1011.95 1012.40 1012.85 1013.30 1013.72 1014.10 1014.43 1014.70 1014.94 1015.16 1015.38 1015.62 1015.86 1016.10 1016.31 1016.48 1016.59 1016.64 1016.67 1016.70 1016.76 1016.86 1017.02 1017.21 1017.42 1017.61 1017.75 1017.84 1017.88 1017.90 1017.94 1018.02
1007.47 1007.53 1007.75 1008.10 1008.55 1009.05 1009.56 1010.06 1010.53 1010.98 1011.44 1011.91 1012.39 1012.88 1013.36 1013.80 1014.19 1014.52 1014.79 1015.04 1015.27 1015.51 1015.76 1016.02 1016.27 1016.49 1016.65 1016.75 1016.80 1016.81 1016.83 1016.89 1017.00 1017.18 1017.40 1017.63 1017.85 1018.01 1018.11 1018.15 1018.15 1018.16 1018.19
1007.79 1007.88 1008.08 1008.39 1008.76 1009.18 1009.60 1010.01 1010.43 1010.87 1011.33 1011.82 1012.34 1012.87 1013.38 1013.84 1014.23 1014.56 1014.83 1015.06 1015.29 1015.53 1015.79 1016.07 1016.34 1016.57 1016.75 1016.86 1016.91 1016.93 1016.95 1017.01 1017.13 1017.32 1017.56 1017.82 1018.05 1018.24 1018.36 1018.40 1018.40 1018.38 1018.38
1008.02 1008.11 1008.30 1008.56 1008.85 1009.18 1009.51 1009.86 1010.24 1010.66 1011.14 1011.66 1012.22 1012.79 1013.32 1013.80 1014.20 1014.51 1014.76 1014.98 1015.20 1015.44 1015.71 1016.00 1016.29 1016.56 1016.77 1016.91 1016.99 1017.03 1017.07 1017.13 1017.26 1017.45 1017.70 1017.96 1018.22 1018.43 1018.56 1018.63 1018.64 1018.62 1018.60
1008.10 1008.20 1008.36 1008.56 1008.78 1009.03 1009.29 1009.59 1009.94 1010.36 1010.86 1011.42 1012.01 1012.61 1013.17 1013.66 1014.05 1014.35 1014.59 1014.79 1015.00 1015.23 1015.51 1015.83 1016.15 1016.46 1016.72 1016.90 1017.03 1017.11 1017.17 1017.25 1017.38 1017.57 1017.81 1018.07 1018.33 1018.55 1018.72 1018.81 1018.85 1018.85 1018.84
1008.06 1008.15 1008.27 1008.41 1008.56 1008.74 1008.95 1009.22 1009.56 1009.99 1010.51 1011.10 1011.72 1012.34 1012.92 1013.40 1013.80 1014.09 1014.32 1014.52 1014.72 1014.96 1015.26 1015.60 1015.96 1016.31 1016.62 1016.87 1017.05 1017.17 1017.27 1017.37 1017.50 1017.67 1017.89 1018.14 1018.39 1018.62 1018.81 1018.95 1019.03 1019.07 1019.10
1007.93 1007.99 1008.06 1008.15 1008.25 1008.39 1008.57 1008.83 1009.17 1009.61 1010.14 1010.75 1011.38 1012.00 1012.58 1013.07 1013.46 1013.76 1013.99 1014.20 1014.42 1014.68 1014.99 1015.36 1015.75 1016.15 1016.51 1016.82 1017.06 1017.23 1017.37 1017.49 1017.61 1017.77 1017.96 1018.18 1018.41 1018.64 1018.85 1019.02 1019.16 1019.26 1019.34
1007.74 1007.77 1007.80 1007.84 1007.92 1008.03 1008.21 1008.48 1008.83 1009.28 1009.82 1010.41 1011.03 1011.63 1012.19 1012.67 1013.06 1013.38 1013.64 1013.88 1014.12 1014.41 1014.75 1015.14 1015.57 1016.00 1016.40 1016.76 1017.05 1017.28 1017.46 1017.60 1017.72 1017.86 1018.02 1018.20 1018.40 1018.62 1018.84 1019.04 1019.23 1019.40 1019.54
1007.53 1007.52 1007.52 1007.55 1007.62 1007.75 1007.95 1008.24 1008.61 1009.06 1009.58 1010.13 1010.70 1011.26 1011.77 1012.23 1012.63 1012.97 1013.27 1013.55 1013.85 1014.18 1014.54 1014.96 1015.40 1015.85 1016.28 1016.68 1017.02 1017.30 1017.52 1017.69 1017.83 1017.96 1018.08 1018.23 1018.40 1018.59 1018.80 1019.02 1019.24 1019.46 1019.66
1007.31 1007.27 1007.25 1007.28 1007.38 1007.55 1007.80 1008.13 1008.52 1008.96 1009.44 1009.92 1010.41 1010.89 1011.34 1011.76 1012.16 1012.52 1012.88 1013.22 1013.57 1013.95 1014.34 1014.77 1015.22 1015.68 1016.13 1016.56 1016.94 1017.28 1017.55 1017.76 1017.92 1018.05 1018.16 1018.28 1018.40 1018.56 1018.75 1018.97 1019.21 1019.46 1019.69
1007.03 1006.98 1006.97 1007.03 1007.18 1007.42 1007.73 1008.11 1008.52 1008.94 1009.35 1009.75 1010.13 1010.51 1010.88 1011.25 1011.64 1012.03 1012.43 1012.84 1013.26 1013.68 1014.11 1014.54 1014.99 1015.45 1015.91 1016.36 1016.79 1017.18 1017.52 1017.79 1018.00 1018.15 1018.26 1018.35 1018.44 1018.55 1018.71 1018.90 1019.13 1019.38 1019.64
1006.68 1006.63 1006.64 1006.75 1006.96 1007.28 1007.67 1008.10 1008.53 1008.92 1009.27 1009.57 1009.83 1010.09 1010.36 1010.68 1011.05 1011.46 1011.92 1012.39 1012.87 1013.33 1013.78 1014.23 1014.67 1015.12 1015.59 1016.06 1016.54 1016.99 1017.41 1017.76 1018.03 1018.23 1018.35 1018.43 1018.49 1018.56 1018.67 1018.82 1019.02 1019.25 1019.50
1006.21 1006.17 1006.21 1006.38 1006.67 1007.07 1007.53 1008.02 1008.46 1008.83 1009.11 1009.31 1009.46 1009.60 1009.79 1010.05 1010.40 1010.83 1011.32 1011.85 1012.38 1012.88 1013.36 1013.80 1014.24 1014.68 1015.15 1015.65 1016.18 1016.71 1017.20 1017.64 1018.00 1018.25 1018.41 1018.49 1018.53 1018.56 1018.62 1018.72 1018.87 1019.07 1019.29
1005.63 1005.60 1005.67 1005.88 1006.24 1006.71 1007.25 1007.78 1008.24 1008.59 1008.82 1008.94 1009.00 1009.06 1009.17 1009.38 1009.71 1010.15 1010.67 1011.24 1011.80 1012.34 1012.82 1013.27 1013.70 1014.14 1014.61 1015.14 1015.71 1016.31 1016.89 1017.42 1017.86 1018.18 1018.38 1018.49 1018.52 1018.52 1018.53 1018.58 1018.68 1018.83 1019.03
1004.95 1004.94 1005.03 1005.28 1005.68 1006.20 1006.78 1007.34 1007.83 1008.18 1008.38 1008.46 1008.46 1008.47 1008.53 1008.71 1009.03 1009.47 1010.02 1010.60 1011.19 1011.73 1012.22 1012.66 1013.07 1013.50 1013.98 1014.53 1015.14 1015.80 1016.45 1017.06 1017.58 1017.97 1018.22 1018.35 1018.38 1018.37 1018.35 1018.36 1018.42 1018.53 1018.70
1004.25 1004.24 1004.33 1004.59 1005.01 1005.55 1006.15 1006.74 1007.25 1007.61 1007.82 1007.90 1007.90 1007.89 1007.95 1008.12 1008.43 1008.87 1009.41 1010.00 1010.58 1011.11 1011.58 1012.00 1012.40 1012.81 1013.29 1013.84 1014.48 1015.18 1015.89 1016.56 1017.13 1017.58 1017.88 1018.04 1018.09 1018.08 1018.05 1018.04 1018.07 1018.16 1018.30
1003.60 1003.58 1003.67 1003.91 1004.31 1004.84 1005.44 1006.05 1006.57 1006.97 1007.22 1007.33 1007.36 1007.39 1007.46 1007.64 1007.95 1008.39 1008.91 1009.47 1010.02 1010.52 1010.95 1011.34 1011.70 1012.10 1012.56 1013.11 1013.75 1014.46 1015.20 1015.90 1016.51 1017.00 1017.34 1017.53 1017.62 1017.63 1017.61 1017.60 1017.63 1017.72 1017.85
1003.05 1003.03 1003.09 1003.30 1003.67 1004.16 1004.75 1005.35 1005.89 1006.33 1006.63 1006.81 1006.92 1007.00 1007.12 1007.32 1007.63 1008.04 1008.52 1009.03 1009.52 1009.96 1010.34 1010.68 1011.01 1011.37 1011.81 1012.34 1012.97 1013.67 1014.40 1015.11 1015.74 1016.25 1016.62 1016.86 1016.98 1017.04 1017.05 1017.07 1017.12 1017.21 1017.35
Thickness
5787 5788 5786 5783 5781 5779 5777 5776 5774 5773 5771 5770 5769 5767 5767 5766 5765 5765 5764 5764 5763 5763 5762 5762 5761 5761 5760 5759 5758 5758 5757 5756 5755 5754 5752 5751 5750 5749 5748 5747 5746 5745 5744
5791 5788 5784 5782 5779 5777 5775 5774 5772 5770 5769 5767 5766 5765 5764 5763 5763 5762 5762 5761 5760 5760 5760 5759 5759 5758 5758 5757 5756 5755 5754 5754 5753 5752 5751 5749 5748 5747 5746 5745 5744 5743 5741
5790 5786 5783 5780 5777 5775 5773 5771 5770 5768 5766 5765 5764 5762 5761 5760 5760 5759 5759 5758 5758 5757 5756 5756 5756 5756 5755 5754 5753 5753 5752 5751 5751 5750 5749 5747 5746 5745 5744 5744 5743 5741 5740
5789 5785 5781 5778 5775 5773 5771 5769 5767 5766 5764 5762 5761 5760 5759 5758 5757 5757 5756 5756 5755 5755 5754 5753 5753 5753 5752 5751 5751 5750 5749 5748 5748 5747 5746 5745 5744 5743 5742 5741 5740 5739 5738
5785 5782 5779 5776 5773 5771 5769 5766 5765 5763 5761 5760 5758 5757 5756 5754 5754 5754 5754 5753 5753 5752 5751 5751 5750 5750 5749 5748 5748 5748 5747 5746 5745 5744 5743 5742 5742 5741 5740 5740 5738 5737 5736
5781 5779 5776 5774 5772 5769 5767 5764 5762 5761 5759 5757 5755 5754 5753 5752 5751 5751 5750 5750 5750 5749 5749 5748 5748 5747 5747 5746 5745 5745 5744 5743 5742 5741 5740 5739 5739 5739 5738 5738 5736 5735 5734
5778 5776 5773 5772 5769 5767 5764 5762 5760 5758 5756 5755 5753 5752 5750 5749 5748 5748 5747 5747 5747 5746 5746 5745 5745 5744 5744 5743 5742 5742 5741 5740 5739 5738 5737 5737 5737 5736 5736 5735 5734 5733 5732
5776 5773 5771 5769 5767 5765 5762 5760 5758 5756 5754 5752 5751 5750 5748 5747 5747 5746 5745 5745 5744 5744 5743 5742 5741 5741 5741 5740 5740 5739 5739 5738 5737 5736 5735 5734 5734 5735 5734 5734 5733 5732 5731
5773 5770 5768 5767 5765 5763 5761 5758 5756 5754 5752 5750 5749 5748 5746 5745 5744 5744 5743 5743 5742 5741 5740 5740 5739 5738 5738 5738 5737 5737 5737 5736 5735 5734 5734 5733 5733 5733 5732 5732 5731 5730 5729
5769 5767 5765 5763 5761 5759 5758 5756 5754 5752 5750 5748 5747 5745 5744 5742 5741 5741 5740 5740 5740 5739 5738 5737 5736 5736 5735 5735 5735 5734 5734 5733 5732 5731 5731 5731 5731 5731 5731 5730 5729 5728 5727
5764 5763 5762 5760 5758 5756 5755 5753 5751 5749 5747 5746 5744 5743 5741 5739 5738 5738 5737 5737 5736 5736 5735 5734 5734 5733 5733 5733 5732 5731 5731 5730 5729 5729 5728 5728 5729 5729 5728 5728 5727 5726 5725
5760 5760 5760 5758 5756 5754 5752 5750 5748 5747 5745 5743 5742 5740 5738 5737 5735 5735 5734 5733 5733 5733 5732 5731 5730 5730 5729 5729 5728 5728 5728 5727 5727 5727 5726 5726 5727 5727 5727 5726 5725 5724 5723
5760 5759 5757 5756 5754 5752 5750 5748 5746 5744 5742 5741 5739 5737 5735 5733 5732 5731 5730 5730 5729 5729 5729 5727 5726 5726 5725 5725 5725 5725 5725 5725 5724 5724 5724 5724 5724 5724 5724 5723 5723 5722 5721
5758 5757 5757 5754 5751 5749 5748 5746 5744 5742 5740 5738 5736 5734 5732 5730 5728 5727 5726 5726 5725 5725 5724 5723 5723 5722 5722 5722 5722 5722 5722 5721 5721 5721 5721 5722 5722 5721 5721 5721 5720 5719 5719
5755 5755 5755 5753 5750 5747 5745 5743 5741 5739 5737 5736 5734 5732 5729 5727 5725 5724 5723 5722 5721 5721 5720 5720 5719 5718 5718 5718 5718 5718 5718 5718 5718 5718 5718 5718 5718 5718 5717 5718 5717 5717 5716
5753 5753 5753 5751 5748 5745 5743 5741 5739 5736 5734 5732 5731 5729 5727 5724 5722 5721 5719 5718 5718 5717 5716 5716 5715 5714 5714 5714 5714 5714 5714 5714 5714 5714 5714 5714 5715 5715 5715 5715 5714 5714 5713
5753 5751 5749 5748 5746 5744 5741 5739 5737 5734 5731 5729 5728 5726 5724 5722 5720 5718 5716 5715 5714 5713 5712 5711 5710 5710 5710 5710 5709 5710 5710 5710 5710 5710 5710 5711 5711 5711 5712 5712 5711 5710 5710
5751 5749 5748 5747 5743 5741 5739 5737 5734 5731 5729 5727 5725 5723 5721 5719 5717 5715 5713 5712 5711 5710 5708 5707 5706 5705 5704 5704 5704 5704 5705 5706 5706 5706 5706 5707 5706 5707 5707 5707 5707 5706 5705
5749 5747 5745 5743 5740 5737 5735 5733 5731 5728 5726 5724 5722 5721 5719 5717 5714 5712 5710 5709 5708 5706 5705 5704 5702 5701 5700 5699 5699 5700 5700 5701 5701 5701 5701 5702 5702 5702 5702 5702 5702 5701 5701
5747 5745 5743 5740 5736 5734 5731 5728 5726 5724 5722 5721 5719 5717 5715 5713 5711 5709 5707 5706 5704 5702 5700 5699 5698 5697 5696 5695 5695 5695 5695 5696 5696 5696 5696 5696 5697 5697 5697 5697 5697 5697 5697
5744 5742 5739 5735 5733 5730 5727 5724 5721 5718 5718 5717 5716 5714 5712 5710 5708 5706 5704 5702 5700 5698 5697 5695 5694 5692 5691 5690 5688 5687 5688 5690 5690 5691 5691 5691 5691 5692 5692 5692 5692 5692 5692
5740 5737 5734 5732 5730 5728 5725 5722 5719 5716 5714 5713 5712 5710 5709 5707 5705 5703 5701 5699 5696 5694 5693 5691 5689 5687 5686 5685 5683 5679 5678 5679 5683 5686 5685 5685 5686 5687 5687 5687 5687 5687 5687
5737 5735 5733 5729 5727 5725 5723 5719 5716 5713 5710 5708 5707 5706 5705 5703 5702 5700 5698 5696 5693 5691 5689 5687 5686 5684 5681 5680 5679 5676 5672 5671 5673 5677 5679 5680 5681 5681 5682 5682 5682 5682 5682
5735 5733 5730 5727 5724 5722 5720 5716 5712 5708 5705 5704 5703 5702 5701 5699 5698 5696 5694 5692 5690 5687 5685 5684 5682 5680 5678 5675 5674 5673 5672 5671 5667 5668 5672 5673 5674 5675 5676 5677 5677 5678 5678
5732 5729 5726 5723 5720 5718 5716 5713 5708 5705 5702 5700 5699 5697 5696 5695 5693 5692 5690 5688 5685 5683 5682 5680 5678 5676 5674 5672 5670 5668 5666 5665 5664 5663 5663 5665 5668 5670 5671 5671 5672 5672 5673
5728 5725 5722 5718 5716 5714 5711 5708 5704 5701 5698 5695 5693 5692 5690 5689 5688 5687 5686 5683 5681 5679 5678 5676 5674 5672 5671 5669 5667 5666 5664 5662 5660 5659 5658 5659 5660 5663 5665 5666 5667 5667 5668